Hourly Data Report for October 13, 2014

All times are specified in Local Standard Time (LST). Add 1 hour to adjust for Daylight Saving Time where and when it is observed.

BAKER LAKE A
NUNAVUT

64°17'56.000" N
96°04'40.000" W
18.60 m
2300503
71926
YBK

Download Data

Hourly Data (October 2014)
Hourly Data Report for October 13, 2014
Temp Definition
°C
Dew Point Temp Definition
°C
Rel Hum Definition
%
Wind Dir Definition
10's deg

Wind Spd Definition
km/h
Visibility Definition
km
Stn Press Definition
kPa
Hmdx Definition


Wind Chill Definition


Weather Definition


TIME
00:00 Legend Double Dagger -3.0 -7.0 74 30 3 24.1 100.36   -4 Cloudy
01:00 Legend Double Dagger -3.0 -7.2 73 35 6 24.1 100.39   -5 LegendNANA
02:00 Legend Double Dagger -3.6 -5.2 89 34 13 24.1 100.40   -8 LegendNANA
03:00 Legend Double Dagger -4.2 -5.3 92 35 18 24.1 100.41   -10 Cloudy
04:00 Legend Double Dagger -4.0 -5.7 88 33 13 24.1 100.42   -9 LegendNANA
05:00 Legend Double Dagger -4.0 -5.7 88 32 13 24.1 100.43   -9 LegendNANA
06:00 Legend Double Dagger -3.9 -7.2 78 32 14 24.1 100.45   -9 Mostly Cloudy
07:00 Legend Double Dagger -4.0 -6.8 81 31 13 32.2 100.45   -9 LegendNANA
08:00 Legend Double Dagger -3.8 -6.4 82 29 9 32.2 100.47   -8 LegendNANA
09:00 Legend Double Dagger -3.4 -6.5 79 29 16 32.2 100.47   -9 Cloudy
10:00 Legend Double Dagger -3.2 -6.2 80 27 22 32.2 100.47   -10 LegendNANA
11:00 Legend Double Dagger -3.0 -5.8 81 29 21 32.2 100.48   -9 LegendNANA
12:00 Legend Double Dagger -2.9 -5.2 84 30 19 32.2 100.51   -9 Cloudy
13:00 Legend Double Dagger -2.7 -5.2 83 28 20 32.2 100.54   -9 LegendNANA
14:00 Legend Double Dagger -2.4 -4.6 85 28 15 32.2 100.57   -7 LegendNANA
15:00 Legend Double Dagger -2.4 -4.3 87 28 18 32.2 100.57   -8 Freezing Drizzle
16:00 Legend Double Dagger -2.4 -3.8 90 29 21 32.2 100.58   -8 Snow
17:00 Legend Double Dagger -2.4 -4.0 89 33 12 16.1 100.62   -7 LegendNANA
18:00 Legend Double Dagger -2.7 -4.7 86 35 11 24.1 100.66   -7 Cloudy
19:00 Legend Double Dagger -2.9 -4.8 87 33 9 24.1 100.69   -6 Snow
20:00 Legend Double Dagger -3.2 -5.4 85 32 9 24.1 100.71   -7 Snow
21:00 Legend Double Dagger -3.5 -5.7 85 31 5 24.1 100.71   -6 Snow
22:00 Legend Double Dagger -3.8 -5.8 86 30 10 24.1 100.71   -8 Snow
23:00 Legend Double Dagger -3.9 -5.9 86 36 2 24.1 100.72   -5 Snow

Notes on Data Quality.

Legend

  • E = Estimated
  • M = Missing
  • NA = Not Available
  • ‡ = Partner data that is not subject to review by the National Climate Archives
Date modified: